Location: Arcizac
(43.0933°N, 0.0112°E)
Time: 13:41:19
(UTC+00:00)

Cosmos 1992 Rocket - Pass Details

Date: 14 December 2019
Orbit: 758 x 766 km, 74.0° (Epoch: 18 January)

Event Time Altitude Azimuth Distance (km) Brightness Sun altitude
Rises 16:56:33 0° 337° (NNW) 3,235 7.2 -5.8°
Reaches altitude 10° 16:58:56 10° 335° (NNW) 2,306 6.5 -6.2°
Maximum altitude 17:04:08 68° 253° (WSW) 822 4.5 -7.1°
Drops below altitude 10° 17:09:18 10° 171° (S) 2,295 6.7 -7.9°
Sets 17:11:40 0° 169° (S) 3,217 7.4 -8.3°
